Home > Weather > Gelendzhik > Past weeks

Flag for Russia Past Weather in Gelendzhik, Russia — Yesterday and Last 2 Weeks

Now
70 °F

Clear.


Feels Like: 70 °F
Forecast: 68 / 92 °F
Wind: 6 mph from Northeast

Location: Anapa / Vitiazevo

Current Time: Jul 30, 2016 at 12:52:01 AM

Latest Report: Jul 30, 2016 at 12:00 AM


Visibility: 3 mi

Pressure: 29.83 "Hg

Humidity: 78%

Dew Point: 63 °F

Location of GelendzhikLocation

Past Weather in Gelendzhik — Graph

°F

Gelendzhik Temperature Yesterday

Maximum temperature yesterday: 91 °F (at 12:00 PM)
Minimum temperature yesterday: 68 °F (at 11:30 PM)
Average temperature yesterday: 80 °F

High & Low Weather Summary for the Past Weeks

 TemperatureHumidityPressure
High93 °F (Jul 15, 3:00 PM)100% (Jul 16, 2:30 AM)29.95 "Hg (Jul 16, 2:30 AM)
Low57 °F (Jul 22, 5:00 AM)28% (Jul 29, 12:30 PM)29.62 "Hg (Jul 18, 4:00 PM)
Average77 °F71%29.83 "Hg
* Reported Jul 14 11:00 PM — Jul 29 11:30 PM, Gelendzhik, Weather by CustomWeather, © 2016

Note: Actual official high and low records may vary slightly from our data, if they occured in-between our weather recording intervals... More about our weather records

Advertising

Gelendzhik Weather History for the Previous 24 Hours

Scroll right to see more
 ConditionsComfort  
Time TempWeatherWind HumidityBarometerVisibility
11:30 PM
Fri, Jul 29
68 °FClear.6 mph83%29.83 "Hg4 mi
11:00 PM72 °FClear.3 mph78%29.83 "Hg4 mi
10:30 PM72 °FClear.3 mph78%29.83 "Hg4 mi
10:00 PM73 °FClear.6 mph74%29.83 "Hg4 mi
9:30 PM75 °FClear.6 mph69%29.83 "Hg4 mi
9:00 PM75 °FClear.8 mph69%29.83 "Hg4 mi
8:30 PM75 °FClear.6 mph74%29.83 "Hg4 mi
8:00 PM79 °FClear.8 mph65%29.83 "Hg5 mi
7:30 PM81 °FClear.10 mph62%29.83 "Hg5 mi
7:00 PM82 °FClear.13 mph55%29.83 "Hg5 mi
6:30 PM84 °FClear.15 mph51%29.83 "Hg5 mi
6:00 PM86 °FClear.15 mph52%29.83 "Hg5 mi
5:30 PM88 °FSunny.13 mph52%29.83 "Hg10 mi
5:00 PM91 °FPassing clouds.10 mph32%29.83 "HgN/A
4:30 PM91 °FPassing clouds.13 mph30%29.86 "HgN/A
4:00 PM91 °FSunny.15 mph30%29.86 "Hg10 mi
3:30 PM91 °FPassing clouds.13 mph32%29.86 "HgN/A
3:00 PM91 °FPassing clouds.13 mph32%29.86 "HgN/A
2:30 PM91 °FPassing clouds.13 mph32%29.86 "HgN/A
2:00 PM91 °FPassing clouds.13 mph32%29.86 "HgN/A
1:30 PM91 °FPassing clouds.13 mph30%29.89 "HgN/A
1:00 PM91 °FPassing clouds.15 mph30%29.89 "HgN/A
12:30 PM91 °FSunny.15 mph28%29.89 "Hg10 mi
12:00 PM91 °FSunny.15 mph30%29.89 "Hg10 mi
11:00 AM90 °FPassing clouds.13 mph36%29.89 "HgN/A
10:30 AM88 °FPassing clouds.13 mph40%29.89 "HgN/A
10:00 AM86 °FSunny.13 mph46%29.89 "Hg10 mi
9:30 AM84 °FSunny.15 mph48%29.89 "Hg10 mi
9:00 AM82 °FSunny.13 mph55%29.89 "Hg10 mi
8:30 AM81 °FClear.10 mph58%29.89 "Hg5 mi
8:00 AM79 °FClear.8 mph65%29.89 "Hg5 mi
7:30 AM77 °FClear.8 mph69%29.89 "Hg5 mi
7:00 AM73 °FMild.8 mph74%29.89 "Hg4 mi
6:30 AM72 °FMild.13 mph73%29.89 "Hg4 mi
6:00 AM72 °FMild.13 mph73%29.89 "Hg4 mi
5:30 AM70 °FMild.13 mph78%29.89 "Hg5 mi
5:00 AM70 °FMild.13 mph78%29.89 "Hg4 mi
4:30 AM70 °FMild.10 mph78%29.89 "Hg4 mi
4:00 AM70 °FMild.10 mph73%29.89 "Hg4 mi
3:30 AM72 °FMild.10 mph69%29.89 "Hg4 mi
3:00 AM70 °FMild.8 mph78%29.89 "Hg4 mi
2:00 AM72 °FMild.8 mph73%29.89 "Hg5 mi
1:30 AM72 °FMild.6 mph73%29.89 "Hg5 mi
1:00 AM72 °FMild.8 mph78%29.89 "Hg5 mi
12:30 AM72 °FMild.8 mph78%29.89 "Hg5 mi
12:00 AM73 °FMild.8 mph74%29.89 "Hg5 mi
Weather by CustomWeather, © 2016

See weather overviewHow to use our weather pages